Regional Weather Roundup
Issued by NWS

Current Version | Previous Version | Text Only | Print | Product List | Glossary Off
Versions: 1 2 3 4 5 6 7 8 9 10 11 12 13 14 15 16 17 18 19 20 21 22 23 24 25 26 27 28 29 30 31 32 33 34 35 36 37 38 39 40 41 42 43 44 45 46 47 48 49 50

000
ASUS43 KLMK 011410
RWRKY
KENTUCKY REGIONAL WEATHER ROUNDUP
NATIONAL WEATHER SERVICE LOUISVILLE KY
1000 AM EDT MON SEP 01 2014

NOTE "FAIR" INDICATES FEW OR NO CLOUDS BELOW 12,000 FEET
WITH NO SIGNIFICANT WEATHER AND/OR OBSTRUCTIONS TO VISIBILITY.

KYZ001>023-026-027-061>063-070>075-011500-
WESTERN AND SOUTH CENTRAL KENTUCKY

CITY           SKY/WX    TMP DP  RH WIND       PRES   REMARKS
PADUCAH        PTSUNNY   81  74  79 SW10G18   29.99F
HENDERSON      CLOUDY    73  70  88 SW8       29.98F
OWENSBORO      CLOUDY    79  75  89 SW13G21   30.01R
HOPKINSVILLE   MOSUNNY   79  79  98 SW14      30.05F
BOWLING GREEN  PTSUNNY   78  72  81 SW9       30.06F
GLASGOW        PTSUNNY   77  72  83 SW6       30.08S
$$

KYZ024-025-028>034-038-045-046-053-011500-
NORTH CENTRAL KENTUCKY

CITY           SKY/WX    TMP DP  RH WIND       PRES   REMARKS
LOUISVILLE/SDF PTSUNNY   80  72  76 SW13      30.01F
LOUISVILLE/LOU MOSUNNY   79  72  79 SW8       30.02F
FORT KNOX      CLOUDY    76  76 100 S12       30.03S
$$

KYZ035>037-039>044-047>052-055>060-089>105-011500-
NORTHEAST KENTUCKY

CITY           SKY/WX    TMP DP  RH WIND       PRES   REMARKS
LEXINGTON      CLOUDY    77  72  84 SW9       30.07S
COVINGTON      LGT RAIN  74  71  91 SW8G16    30.01S
FRANKFORT      CLOUDY    76  72  87 SW12      30.04S
$$

KYZ054-064>069-076>088-106>120-011500-
SOUTHEAST KENTUCKY

CITY           SKY/WX    TMP DP  RH WIND       PRES   REMARKS
JACKSON        CLOUDY    75  70  84 VRB3      30.12S
LONDON         SUNNY     79  69  71 W13       30.12S
SOMERSET       MOSUNNY   75  72  88 S3        30.12R
MIDDLESBORO    MOSUNNY   76  70  82 CALM      30.14S
MONTICELLO     MOSUNNY   80  72  76 SW8       30.12S
$$




USA.gov is the U.S. government's official web portal to all federal, state and local government web resources and services.